Location: Jangalapalle
(16.8036°N, 80.6370°E)
Time: 10:49:48
(UTC+00:00)

Thor Agena Rocket - Pass Details

Date: 05 August 2024
Orbit: 756 x 805 km, 99.1° (Epoch: 08 September)

Event Time Altitude Azimuth Distance (km) Brightness Sun altitude
Rises 22:11:19 0° 18° (NNE) 3,205 7.4 -28.8°
Reaches altitude 10° 22:13:39 10° 21° (NNE) 2,278 6.6 -28.3°
Maximum altitude 22:18:35 62° 102° (ESE) 844 3.8 -27.3°
Enters shadow 22:19:21 55° 144° (SE) 905 3.8 -27.2°
